Location: Brno
(49.2000°N, 16.6330°E)
Time: 23:40:24
(UTC+02:00)

Transit 4A - Pass Details

Date: 30 July 2021
Orbit: 870 x 974 km, 66.8° (Epoch: 26 September)

Event Time Altitude Azimuth Distance (km) Brightness Sun altitude
Rises 05:36:10 0° 303° (WNW) 3,468 10.6 1.0°
Reaches altitude 10° 05:40:06 10° 329° (NNW) 2,527 10.2 1.6°
Maximum altitude 05:42:57 14° 359° (N) 2,274 10.3 2.0°
Drops below altitude 10° 05:45:49 10° 29° (NNE) 2,533 11.2 2.4°
Sets 05:49:47 0° 55° (NE) 3,483 13.2 3.0°
